#timestamp,LO_Frequency,Hit 
1504818015.2,286047008.0,N
1504818035.1,286047006.7,N
1504818036.0,286047006.7,N
1504818055.8,286047007.0,N
1504818075.6,286047010.4,N
1504818095.5,286047009.3,N
1504818115.3,286047013.0,N
1504818135.1,286047011.0,N
1504818155.9,286047011.2,N
1504818175.7,286047012.0,N
1504818195.5,286047008.2,N
1504818215.4,286047008.8,N
1504818235.2,286047005.6,N
1504818255.0,286047005.8,N
1504818255.9,286047005.8,N
1504818275.8,286047006.0,N
1504818295.6,286047004.8,N
1504818315.4,286047003.3,N
1504818335.2,286047003.0,N
1504818355.1,286047000.0,N
1504818356.0,286047000.0,N
1504818375.8,286047005.9,N
1504818395.6,286047003.6,N
1504818415.5,286047004.7,N
1504818435.3,286047006.2,N
1504818455.1,286047006.6,N
1504818475.9,286047008.5,N
1504818495.7,286047004.5,N
1504818515.5,286047006.0,N
1504818535.4,286047005.1,N
1504818555.2,286047003.1,N
1504818575.0,286047007.2,N
1504818575.9,286047007.2,N
1504818595.8,286047008.8,N
1504818615.6,286047008.9,N
1504818635.4,286047004.8,N
1504818655.2,286047005.0,N
1504818675.1,286047005.1,N
1504818676.0,286047005.1,N
1504818695.8,286047008.7,P
1504818715.7,286046999.9,N
1504818735.5,286047004.4,N
1504818755.3,286047004.0,N
1504818775.1,286047002.2,N
1504818795.9,286047004.5,N
1504818815.7,286047005.9,N
1504818835.5,286047003.9,N
1504818855.4,286047003.2,N
1504818875.2,286047001.0,N
1504818895.0,286046994.7,N
1504818895.9,286046994.7,N
1504818915.8,286046989.2,N
1504818935.6,286046988.6,N
1504818955.4,286046988.2,N
1504818975.3,286046986.3,N
1504818995.1,286046988.0,N
1504818996.0,286046988.0,N
1504819015.8,286046985.8,N
1504819035.7,286046978.9,N
1504819055.5,286046975.9,N
1504819075.3,286046972.6,N
1504819095.1,286046971.2,N
1504819115.9,286046971.8,N
1504819135.7,286046971.6,N
1504819155.5,286046971.3,N
1504819175.4,286046975.1,N
1504819195.2,286046972.7,N
1504819215.0,286046972.5,N
1504819215.9,286046972.5,N
1504819235.8,286046973.3,N
1504819255.6,286046969.5,N
1504819275.4,286046970.3,N
1504819295.3,286046969.8,N
1504819315.1,286046972.1,N
1504819316.0,286046972.1,N
1504819335.8,286046970.0,N
1504819355.7,286046967.2,P
1504819375.5,286046984.4,N
1504819395.3,286046989.7,N
1504819415.2,286046987.1,N
1504819435.9,286046983.7,N
1504819455.7,286046981.5,N
1504819475.6,286046980.6,N
1504819495.4,286046980.6,P
1504819515.2,286046997.2,P
1504819535.1,286046994.1,N
1504819536.0,286046994.1,N
1504819555.8,286046999.9,N
1504819575.6,286047009.1,N
1504819595.5,286047016.8,N
1504819615.3,286047018.9,N
1504819635.1,286047024.6,N
1504819655.8,286047025.3,N
1504819675.7,286047023.8,N
1504819695.5,286047026.5,N
1504819715.3,286047025.4,N
1504819735.2,286047025.4,N
1504819755.9,286047024.2,N
1504819775.7,286047030.8,N
1504819795.6,286047032.7,N
1504819815.4,286047032.7,N
1504819835.2,286047033.9,N
1504819855.1,286047032.7,N
1504819856.0,286047032.7,N
1504819875.8,286047034.2,N
1504819895.6,286047036.0,N
1504819915.5,286047034.8,N
1504819935.3,286047030.1,N
1504819955.1,286047030.6,N
1504819975.8,286047033.3,N
1504819995.7,286047035.0,N
1504820015.5,286047037.8,N
1504820035.3,286047036.3,N
1504820055.2,286047037.3,N
1504820075.0,286047037.6,N
1504820075.9,286047037.6,P
1504820095.8,286047010.9,N
1504820115.6,286047011.8,N
1504820135.4,286047013.6,N
1504820155.2,286047012.9,N
1504820175.1,286047012.9,N
1504820176.0,286047012.9,N
1504820195.8,286047014.3,N
1504820215.6,286047014.3,N
1504820235.5,286047012.6,N
1504820255.3,286047013.7,N
1504820275.1,286047013.9,N
1504820295.9,286047012.9,N
1504820315.7,286047015.4,N
1504820335.5,286047011.6,N
1504820355.4,286047012.2,N
1504820375.2,286047010.2,N
1504820395.0,286047008.6,N
1504820395.9,286047008.6,N
1504820415.7,286047008.2,N
1504820435.6,286047008.7,N
1504820455.4,286047010.4,N
1504820475.2,286047009.4,N
1504820495.1,286047011.6,N
1504820496.0,286047011.6,N
1504820515.8,286047007.9,N
1504820535.6,286047009.3,N
1504820555.5,286047012.9,N
1504820575.3,286047012.9,N
1504820595.1,286047013.8,N
1504820615.9,286047012.8,N
1504820635.7,286047013.0,P
1504820655.5,286047002.4,P
1504820675.4,286047004.2,N
1504820695.2,286047007.5,N
1504820715.0,286047003.9,N
1504820715.9,286047003.9,N
1504820735.8,286047000.3,N
1504820755.6,286047002.7,N
1504820775.4,286047001.8,N
1504820795.3,286047004.8,N
1504820815.1,286047007.2,N
1504820816.0,286047007.2,N
1504820835.8,286047004.7,N
1504820855.6,286047002.4,N
1504820875.5,286046998.6,N
1504820895.3,286047000.5,N
1504820915.1,286047002.5,N
1504820935.9,286047004.3,N
1504820955.7,286047001.9,N
1504820975.5,286047000.6,N
1504820995.4,286047002.8,N
1504821015.2,286046999.0,N
1504821035.0,286046998.3,N
1504821035.9,286046998.3,N
1504821055.8,286046999.8,N
1504821075.6,286047002.4,N
1504821095.4,286047003.9,N
1504821115.3,286047007.1,N
1504821135.1,286047008.2,N
1504821136.0,286047008.2,N
1504821155.8,286047008.3,N
1504821175.6,286047007.0,N
1504821195.5,286047006.9,N
1504821215.3,286047008.9,N
1504821235.1,286047004.6,N
1504821255.9,286047001.4,N
1504821275.7,286046996.5,N
1504821295.5,286046993.1,N
1504821315.4,286046987.6,P
1504821335.2,286046980.2,N
1504821355.0,286046978.7,N
1504821355.9,286046978.7,N
1504821375.8,286046982.0,N
1504821395.6,286046981.6,N
1504821415.4,286046975.9,N
1504821435.3,286046976.5,N
1504821455.1,286046979.5,N
1504821456.0,286046979.5,N
1504821475.8,286046979.8,N
1504821495.7,286046974.2,P
1504821515.5,286046993.1,N
1504821535.3,286046990.3,N
1504821555.2,286046993.2,N
1504821575.9,286046987.5,N
1504821595.7,286046985.2,N
